This demonstration page uses our WeatherBlox Daily Observations layout. Learn more.

41.55636, -103.73856

Hourly Observations for September 8, 2017

Temp ( °F °C ) Dew Point ( °F °C ) Humidity (%) Winds ( mph kmh ) Pressure ( in mb ) Visibility ( mi km ) Precip ( " mm )
12:53 am 00:53 Clear 58 14.4 47 8.3 67 67 ESE 7 11 29.95 1014 10 16.0934 0 0
1:53 am 01:53 Clear 57 13.9 47 8.3 69 69 E 7 11 29.95 1014 10 16.0934 0 0
2:53 am 02:53 Clear 55 12.8 47 8.3 74 74 E 5 7 29.96 1015 10 16.0934 0 0
3:53 am 03:53 Clear 53 11.7 47 8.3 80 80 Calm 29.96 1015 10 16.0934 0 0
4:53 am 04:53 Clear 54 12.2 48 8.9 80 80 W 3 6 29.96 1015 10 16.0934 0 0
5:53 am 05:53 Clear 51 10.6 47 8.3 86 86 NNE 3 6 29.98 1015 10 16.0934 0 0
6:53 am 06:53 Sunny 50 10 45 7.2 83 83 SW 5 7 30.01 1016 9 14.48406 0 0
7:53 am 07:53 Sunny 56 13.3 48 8.9 75 75 undefined N/A 30.01 1016 7 11.26538 0 0
8:53 am 08:53 Sunny 63 17.2 49 9.4 60 60 Calm 30.01 1016 10 16.0934 0 0
9:53 am 09:53 Sunny 69 20.6 50 10 51 51 VRB 5 7 30.02 1017 10 16.0934 0 0
10:53 am 10:53 Sunny 74 23.3 51 10.6 45 45 SE 5 7 30.01 1016 10 16.0934 0 0
11:53 am 11:53 Sunny 79 26.1 52 11.1 39 39 E 10 17 29.99 1016 10 16.0934 0 0
12:53 pm 12:53 Sunny 83 28.3 52 11.1 34 34 E 13 20 29.97 1015 10 16.0934 0 0
1:53 pm 13:53 Sunny 86 30 50 10 29 29 E 12 19 29.94 1014 10 16.0934 0 0
2:53 pm 14:53 Sunny 87 30.6 51 10.6 29 29 ESE 17 28 29.92 1013 10 16.0934 0 0
3:53 pm 15:53 Sunny 85 29.4 51 10.6 31 31 ESE 12 19 29.91 1013 10 16.0934 0 0
4:53 pm 16:53 Sunny 87 30.6 45 7.2 23 23 SE 14 22 29.9 1012 10 16.0934 0 0
5:53 pm 17:53 Sunny 80 26.7 52 11.1 38 38 ESE 9 15 29.92 1013 10 16.0934 0 0
6:53 pm 18:53 Sunny 76 24.4 52 11.1 43 43 E 10 17 29.93 1013 9 14.48406 0 0
7:53 pm 19:53 Clear 75 23.9 52 11.1 45 45 ESE 13 20 29.92 1013 10 16.0934 0 0
8:53 pm 20:53 Clear 72 22.2 53 11.7 52 52 SE 5 7 29.94 1014 9 14.48406 0 0
9:53 pm 21:53 Clear 70 21.1 53 11.7 55 55 ENE 7 11 29.95 1014 10 16.0934 0 0
10:53 pm 22:53 Clear 72 22.2 51 10.6 48 48 E 7 11 29.93 1014 10 16.0934 0 0
11:53 pm 23:53 Clear 67 19.4 52 11.1 59 59 ESE 8 13 29.92 1013 10 16.0934 0 0

Powered by AerisWeather